Location: Laura�t
(43.9341°N, 0.2497°E)
Time: 13:31:49
(UTC+00:00)

Ariane Rocket - Pass Details

Date: 03 March 2021
Orbit: 759 x 771 km, 98.7° (Epoch: 14 April)

Event Time Altitude Azimuth Distance (km) Brightness Sun altitude
Exits shadow 20:22:15 50° 210° (SSW) 975 3.5 -27.8°
Maximum altitude 20:23:17 61° 259° (WSW) 872 3.4 -28.0°
Drops below altitude 10° 20:28:21 10° 339° (NNW) 2,322 6.0 -28.8°
Sets 20:30:42 0° 343° (NNW) 3,252 6.7 -29.2°
